Hourly Data Report for January 23, 2021

STE-ANNE-DE-BELLEVUE 1
QUEBEC
Current Station Operator: ECCC - MSC

45°25'38.000" N
73°55'45.000" W
39.00 m
702FHL8
71377
WVQ

Download Data

Hourly Data (January 2021)
Hourly Data Report for January 23, 2021
TIME
LST
Temp Definition
°C
Dew Point Definition
°C
Rel Hum Definition
%
Precip. Amount Definition
mm

Wind Dir Definition
10's deg

Wind Spd Definition
km/h
Visibility Definition
km
Stn Press Definition
kPa
Hmdx Definition


Wind Chill Definition


Weather Definition


00:00 -9.6 -13.4 74 0.0 28 16   100.72   -16 LegendNANA
01:00 -10.6 -14.3 74 0.0 28 15   100.77   -17 LegendNANA
02:00 -10.9 -14.7 73 0.0 28 18   100.83   -19 LegendNANA
03:00 -11.3 -15.3 73 0.0 30 16   100.86   -19 LegendNANA
04:00 -12.6 -16.3 74 0.0 28 20   100.90   -21 LegendNANA
05:00 -13.4 -16.9 75 0.0 28 17   100.95   -21 LegendNANA
06:00 -13.8 -17.3 75 0.0 28 20   101.05   -23 LegendNANA
07:00 -13.7 -16.4 80 0.0 27 22   101.10   -23 LegendNANA
08:00 -13.4 -16.1 80 0.0 28 16   101.21   -21 LegendNANA
09:00 -13.1 -16.6 75 0.0 28 21   101.26   -22 LegendNANA
10:00 -12.9 -16.7 74 0.0 29 19   101.34   -21 LegendNANA
11:00 -13.0 -17.0 72 0.0 29 25   101.37   -23 LegendNANA
12:00 -13.2 -18.1 66 0.0 28 24   101.35   -23 LegendNANA
13:00 -12.5 -18.1 63 0.0 27 19   101.34   -21 LegendNANA
14:00 -13.1 -18.9 62 0.0 26 20   101.39   -22 LegendNANA
15:00 -12.8 -18.5 63 0.0 26 24   101.43   -22 LegendNANA
16:00 -13.1 -18.5 64 0.0 26 20   101.49   -22 LegendNANA
17:00 -13.1 -17.2 71 0.0 27 20   101.55   -22 LegendNANA
18:00 -13.2 -18.1 67 0.0 28 19   101.61   -22 LegendNANA
19:00 -13.3 -18.4 65 0.0 28 23   101.66   -23 LegendNANA
20:00 -13.6 -18.5 66 0.0 27 20   101.65   -22 LegendNANA
21:00 -15.4 -19.2 73 0.0 25 18   101.65   -24 LegendNANA
22:00 -15.5 -19.2 73 0.0 25 16   101.60   -24 LegendNANA
23:00 -14.5 -19.0 69 0.0 27 14   101.64   -22 LegendNANA

Notes on Data Quality.

Legend

  • E = Estimated
  • M = Missing
  • NA = Not Available*
  • [empty] = Indicates an unobserved value
Date modified: